Regional Weather Roundup
Issued by NWS San Angelo, TX

Home | Current Version | Previous Version | Text Only | Print | Product List | Glossary On
Versions: 1 2 3 4 5 6 7 8 9 10 11 12 13 14 15 16 17 18 19 20 21 22 23 24 25 26 27 28 29 30 31 32 33 34 35 36 37 38 39 40 41 42 43 44 45 46 47 48 49 50
000
ASUS44 KSJT 202058
RWRSJT
WEST CENTRAL TEXAS REGIONAL WEATHER ROUNDUP
NATIONAL WEATHER SERVICE SAN ANGELO TX
400 PM CDT FRI APR 20 2018

NOTE: "FAIR" INDICATES FEW OR NO CLOUDS BELOW 12,000 FEET WITH NO
SIGNIFICANT WEATHER AND/OR OBSTRUCTIONS TO VISIBILITY.

TXZ049-054-064>066-071>073-076>078-098-099-113-114-127-128-139-140-
154-155-168>170-202200
...LOCATIONS ACROSS WEST CENTRAL TEXAS...

CITY           SKY/WX    TMP DP  RH WIND       PRES   REMARKS
SAN ANGELO     CLOUDY    70  46  42 SE22G29   30.00F
ABILENE        CLOUDY    69  44  40 SE20G32   30.02F
DYESS AFB      NOT AVBL
JUNCTION       CLOUDY    67  46  47 SE22G28   30.07F
SWEETWATER     NOT AVBL
BROWNWOOD      NOT AVBL
COLEMAN        NOT AVBL
SONORA         NOT AVBL
OZONA          NOT AVBL
BRADY          NOT AVBL
$$

TEXAS PANHANDLE/OKLAHOMA PANHANDLE

CITY           SKY/WX    TMP DP  RH WIND       PRES   REMARKS
AMARILLO       CLOUDY    58  35  42 SE33G43   29.94F
BORGER         CLOUDY    59  34  39 SE23G39   29.96F
CANADIAN       NOT AVBL
DALHART        PTSUNNY   60  35  39 SE24G36   29.91F
DUMAS          NOT AVBL
GUYMON         NOT AVBL
HEREFORD       NOT AVBL
PAMPA          NOT AVBL
PERRYTON       NOT AVBL
$$

SOUTHERN PANHANDLE/SOUTH PLAINS/ROLLING PLAINS

CITY           SKY/WX    TMP DP  RH WIND       PRES   REMARKS
LUBBOCK        CLOUDY    66  42  41 SE37G48   29.91F
SNYDER         NOT AVBL
CHILDRESS      CLOUDY    64  40  41 SE23G36   30.02F
SEMINOLE       NOT AVBL
$$

PERMIAN BASIN

CITY           SKY/WX    TMP DP  RH WIND       PRES   REMARKS
MIDLAND        CLOUDY    73  50  44 SE37G47   29.87F BLWGDUST
ODESSA         CLOUDY    72  49  44 S31G44    29.88F
WINK           SUNNY     79  50  36 SE31G44   29.77F
$$

FAR WEST/SOUTHWEST MOUNTAINS/TRANS PECOS

CITY           SKY/WX    TMP DP  RH WIND       PRES   REMARKS
ALPINE         NOT AVBL
DRYDEN         NOT AVBL
EL PASO        SUNNY     76  13   9 NW30G39   29.88F
FORT STOCKTON  SUNNY     76  52  43 SE28G41   29.83F
GUADALUPE PASS NOT AVBL
MARFA          NOT AVBL
PECOS          NOT AVBL
$$

DALLAS/FORT WORTH METROPLEX

CITY           SKY/WX    TMP DP  RH WIND       PRES   REMARKS
DFW AIRPORT    MOSUNNY   68  38  33 SE16G22   30.10F
FTW MEACHAM    SUNNY     72  41  32 SE15G23   30.11F
DAL-EXECUTIVE  SUNNY     69  41  36 SE15G23   30.12F
GRAND PRAIRIE  SUNNY     68  37  32 E12       30.13F
ADDISON        SUNNY     68  37  32 E12G21    30.12F
MESQUITE       CLEAR     68  39  34 E10G17    30.13F
LANCASTER      NOT AVBL
$$

NORTH CENTRAL TEXAS

CITY           SKY/WX    TMP DP  RH WIND       PRES   REMARKS
SHRMAN/DENISON NOT AVBL
GAINESVILLE    NOT AVBL
BRIDGEPORT     NOT AVBL
DENTON         SUNNY     67  40  37 E15G21    30.11F
WAXAHACHIE     NOT AVBL
GRANBURY       NOT AVBL
$$

WESTERN NORTH TEXAS

CITY           SKY/WX    TMP DP  RH WIND       PRES   REMARKS
WICHITA FALLS  PTSUNNY   68  38  33 SE18G31   30.07F
VERNON         NOT AVBL
BRECKENRIDGE   NOT AVBL
COMANCHE       NOT AVBL
$$

CENTRAL AND SOUTH CENTRAL TEXAS

CITY           SKY/WX    TMP DP  RH WIND       PRES   REMARKS
AUSTIN/BERGSTM CLOUDY    67  48  50 SE9       30.12F
WACO           SUNNY     69  42  37 SE12G18   30.13F
HILLSBORO      NOT AVBL
TEMPLE         SUNNY     68  45  43 SE16      30.14F
KILLEEN-GRAY   NOT AVBL
FORT HOOD      NOT AVBL
GEORGETOWN     NOT AVBL
LAGO VISTA     NOT AVBL
SAN MARCOS     NOT AVBL
NEW BRAUNFELS  CLOUDY    66  51  58 E15       30.10F
RANDOLPH AFB   DRIZZLE   63  54  72 E15       30.10
SAN ANTONIO    CLOUDY    62  52  69 E17       30.09F
STINSON        CLOUDY    66  55  67 E18G24    30.05F
PLEASANTON     NOT AVBL
LA GRANGE      NOT AVBL
GIDDINGS       NOT AVBL
$$

EAST TEXAS

CITY           SKY/WX    TMP DP  RH WIND       PRES   REMARKS
PARIS          NOT AVBL
CLARKSVILLE    NOT AVBL
TYLER          SUNNY     69  39  33 E13       30.16F
LONGVIEW       SUNNY     66  44  45 E6        30.18F
PALESTINE      NOT AVBL
NACOGDOCHES    NOT AVBL
$$

TEXAS HILL COUNTRY AND EDWARDS PLATEAU

CITY           SKY/WX    TMP DP  RH WIND       PRES   REMARKS
LLANO          NOT AVBL
HORSESHOE BAY  NOT AVBL
KERRVILLE      NOT AVBL
FREDERICKSBRG  NOT AVBL
ROCKSPRINGS    NOT AVBL
HONDO          CLOUDY    68  56  65 E18G26    30.06F
UVALDE         NOT AVBL
DEL RIO          N/A     65  55  70 E13       29.99F
$$

SOUTHEAST TEXAS

CITY           SKY/WX    TMP DP  RH WIND       PRES   REMARKS
COLLEGE STN    MOSUNNY   66  45  46 E10       30.15F
CALDWELL       NOT AVBL
CROCKETT       NOT AVBL
BRENHAM        NOT AVBL
HUNTSVILLE     MOSUNNY   65  44  46 SE5       30.15F
CONROE         CLOUDY    66  46  48 SE9       30.17F
HOUSTON BUSH   PTSUNNY   67  47  48 E9        30.16F
HOUSTON HOBBY  CLOUDY    65  51  60 E12G17    30.15F
PERLAND        FAIR      66  53  63 E12       30.18S
WHARTON        NOT AVBL
$$

THE UPPER TEXAS COAST

CITY           SKY/WX    TMP DP  RH WIND       PRES   REMARKS
ORANGE         NOT AVBL
PORT ARTHUR    FAIR      66  45  46 SE8       30.17F
GALVESTON      FAIR      66  55  67 E14       30.16F
ANGLETON       FAIR      68  53  58 E10       30.15F
BAY CITY       NOT AVBL
$$

TEXAS COASTAL BEND, RIO GRANDE PLAINS DEEP SOUTH TEXAS

CITY           SKY/WX    TMP DP  RH WIND       PRES   REMARKS
VICTORIA       PTSUNNY   70  54  56 E14       30.12F
BEEVILLE       NOT AVBL
ROCKPORT       CLOUDY    72  62  71 E17G25    30.09S
PORT ARANSAS   NOT AVBL
PORT LAVACA    NOT AVBL
CORPUS CHRISTI CLOUDY    74  62  66 E20G28    30.08R
KINGSVILLE NAS NOT AVBL
COTULLA        CLOUDY    79  58  48 SE16      30.00F
LAREDO         NOT AVBL
BROWNSVILLE    FAIR      79  65  62 SE16      30.04F
PORT ISABEL    FAIR      77  65  66 SE18      30.04F
HEBBRONVILLE   NOT AVBL
MCALLEN        CLOUDY    85  62  46 SE20G26   30.01F
WESLACO        NOT AVBL
FALFURRIAS     NOT AVBL
EDINBURG       NOT AVBL
$$




USA.gov is the U.S. government's official web portal to all federal, state and local government web resources and services.